Augusta, ME

1:03 PM EDT on September 24, 2017 (GMT -0400)
Augusta State

Weather History for KAUG - April, 2014

Change the Weather History Date:

Wednesday, April 9, 2014

  Actual Average Record
Temperature  
Mean Temperature 41 °F 41 °F  
Max Temperature 49 °F 50 °F 65 °F (1981)
Min Temperature 32 °F 32 °F 12 °F (1977)
Degree Days  
Heating Degree Days 24 24  
Month to date heating degree days 227 230  
Since 1 July heating degree days 6981 6599  
Cooling Degree Days 0 0  
Month to date cooling degree days 0 0  
Year to date cooling degree days 0 0  
Moisture  
Dew Point 23 °F    
Average Humidity 51    
Maximum Humidity 76    
Minimum Humidity 25    
Precipitation  
Precipitation 0.00 in 0.12 in 0.87 in (2000)
Month to date precipitation 1.11 1.12  
Year to date precipitation 9.04 9.53  
Sea Level Pressure  
Sea Level Pressure 29.61 in    
Wind  
Wind Speed 11 mph (WNW)    
Max Wind Speed 24 mph    
Max Gust Speed 37 mph    
Visibility 10 miles    
Events      
T = Trace of Precipitation, MM = Missing Value Source: NWS Daily Summary

Daily Weather History Graph

Daily Weather History Graph

Search for Another Location

Airport or City:

Trip Planner

Search our weather history database for the weather conditions in past years. The results will help you decide how hot, cold, wet, or windy it might be!

Date:

Astronomy

Apr. 09, 2014 Rise Set
Actual Time 6:06 AM EDT 7:16 PM EDT
Civil Twilight 5:36 AM EDT 7:46 PM EDT
Nautical Twilight 5:00 AM EDT 8:21 PM EDT
Astronomical Twilight 4:22 AM EDT 8:59 PM EDT
Moon 1:50 PM EDT (4/9) 3:04 AM EDT (4/9)
Length of Visible Light 14h 09m
Length of Day
13h 10m
Waxing Gibbous, 71% of the Moon is Illuminated
Apr 9
Waxing Gibbous
Apr 15
Full
Apr 22
Last Quarter
Apr 29
New
May 6
First Quarter

Hourly Weather History & Observations

Time (EDT) Temp. Windchill Dew Point Humidity Pressure Visibility Wind Dir Wind Speed Gust Speed Precip Events Conditions
12:53 AM 42.1 °F 36.6 °F 32.0 °F 67% 29.41 in 10.0 mi WNW 9.2 mph - N/A   Clear
1:53 AM 41.0 °F 37.1 °F 30.9 °F 67% 29.43 in 10.0 mi NW 5.8 mph - N/A   Clear
2:53 AM 39.9 °F 34.5 °F 32.0 °F 73% 29.47 in 10.0 mi West 8.1 mph - N/A   Mostly Cloudy
3:53 AM 39.9 °F 33.9 °F 32.0 °F 73% 29.47 in 10.0 mi West 9.2 mph - N/A   Clear
4:53 AM 39.9 °F 35.1 °F 30.9 °F 70% 29.47 in 10.0 mi NW 6.9 mph - N/A   Clear
5:53 AM 39.0 °F 35.7 °F 30.9 °F 73% 29.50 in 10.0 mi WNW 4.6 mph - N/A   Clear
6:53 AM 39.0 °F 35.7 °F 30.9 °F 73% 29.52 in 10.0 mi West 4.6 mph - N/A   Scattered Clouds
7:53 AM 43.0 °F 36.8 °F 33.1 °F 68% 29.55 in 10.0 mi WNW 11.5 mph - N/A   Partly Cloudy
8:53 AM 44.1 °F 37.1 °F 32.0 °F 63% 29.55 in 10.0 mi West 15.0 mph 23.0 mph N/A   Clear
9:53 AM 46.0 °F 40.6 °F 32.0 °F 58% 29.57 in 10.0 mi WNW 11.5 mph 18.4 mph N/A   Mostly Cloudy
10:53 AM 46.9 °F - 30.9 °F 54% 29.57 in 10.0 mi WNW 15.0 mph 23.0 mph N/A   Partly Cloudy
11:53 AM 46.0 °F 39.9 °F 28.0 °F 50% 29.58 in 10.0 mi NW 13.8 mph 24.2 mph N/A   Mostly Cloudy
12:53 PM 48.0 °F - 28.0 °F 46% 29.59 in 10.0 mi NW 17.3 mph 25.3 mph N/A   Mostly Cloudy
1:53 PM 46.9 °F - 24.1 °F 41% 29.60 in 10.0 mi WNW 20.7 mph 36.8 mph N/A   Partly Cloudy
2:53 PM 46.9 °F - 19.9 °F 34% 29.61 in 10.0 mi WNW 15.0 mph 26.5 mph N/A   Clear
3:53 PM 46.9 °F - 16.0 °F 29% 29.62 in 10.0 mi West 15.0 mph 25.3 mph N/A   Clear
4:53 PM 46.0 °F 39.6 °F 12.0 °F 25% 29.64 in 10.0 mi WNW 15.0 mph 27.6 mph N/A   Clear
5:53 PM 44.1 °F 37.7 °F 12.0 °F 27% 29.68 in 10.0 mi WNW 12.7 mph 23.0 mph N/A   Clear
6:53 PM 41.0 °F 33.5 °F 12.9 °F 32% 29.72 in 10.0 mi NW 13.8 mph 28.8 mph N/A   Clear
7:53 PM 37.9 °F 28.9 °F 12.9 °F 36% 29.77 in 10.0 mi NW 16.1 mph 25.3 mph N/A   Clear
8:53 PM 36.0 °F 30.3 °F 12.9 °F 39% 29.82 in 10.0 mi WNW 6.9 mph - N/A   Clear
9:53 PM 34.0 °F 27.2 °F 12.9 °F 42% 29.84 in 10.0 mi WNW 8.1 mph - N/A   Clear
10:53 PM 33.1 °F 27.7 °F 12.9 °F 43% 29.87 in 10.0 mi WNW 5.8 mph - N/A   Clear
11:53 PM 33.1 °F 27.7 °F 10.9 °F 40% 29.90 in 10.0 mi West 5.8 mph - N/A   Clear